User: anonymous   Login
Location: Unspecified
(0.0000°N, 0.0000°E)
Time: 20:07:58
(UTC+00:00)
Language:

N. Korean satellite - Orbit

View from above orbital plane
View from above orbital plane
View from above satellite
View from above satellite

Ground track
Ground track

The orbit data is extracted from the following two-line orbital elements,

1 39026U 12072A   17266.13258265  .00001380  00000-0  55590-4 0  9996
2 39026  97.2212 280.6316 0039954 187.5836 172.4804 15.25806138264927
Epoch (UTC): 23 September 2017 03:10:55
Eccentricity: 0.0039954
inclination: 97.2212°
perigee height: 461 km
apogee height: 516 km
right ascension of ascending node: 280.6316°
argument of perigee: 187.5836°
revolutions per day: 15.25806138
mean anomaly at epoch: 172.4804°
orbit number at epoch: 26492

The dashed part of the orbit path shows where the satellite is in the earth's shadow,  

DLR